Location: Newark
(54.6833°N, 25.2833°E)
Time: 07:28:11
(UTC+00:00)

Altair - Pass Details

Date: 19 November 2019
Orbit: 1502 x 1682 km, 47.2° (Epoch: 09 December)

Event Time Altitude Azimuth Distance (km) Brightness Sun altitude
Rises 02:01:13 0° 229° (SW) 4,637 - -33.3°
Reaches altitude 10° 02:04:25 10° 223° (SW) 3,651 - -32.9°
Exits shadow 02:10:24 36° 190° (S) 2,197 8.1 -32.0°
Maximum altitude 02:12:49 43° 156° (SSE) 2,017 8.1 -31.7°
Drops below altitude 10° 02:21:19 10° 90° (E) 3,696 10.4 -30.5°
Sets 02:24:34 0° 84° (E) 4,699 11.2 -30.0°
